(2019 TZ6) |
Classification: Apollo [NEO] SPK-ID: 3879168 |
[ hide orbit diagram ]
For accurate long-term ephemerides, please instead use our Horizons system.This orbit viewer was implemented using two-body methods, and hence should not be used for determining accurate long-term trajectories (over several years or decades) or planetary encounter circumstances.
Orbital Elements at Epoch 2459000.5 (2020-May-31.0) TDB
Reference: JPL 1 (heliocentric ecliptic J2000)
Element | Value | Uncertainty (1-sigma) | Units |
e | .353098836331349 | 0.00022659 | |
a | 1.008037145256997 | 0.00012555 | au |
q | .6521004022879762 | 0.00015813 | au |
i | 10.7858909762432 | 0.0082136 | deg |
node | 17.33338186951813 | 0.00019784 | deg |
peri | 110.0432142360748 | 0.008021 | deg |
M | 157.8260748453851 | 0.012624 | deg |
tp | 2458838.434906003708 (2019-Dec-20.93490600) | 0.019183 | TDB |
period | 369.6691683919872 1.01 | 0.06906 0.0001891 | d yr |
n | .9738437250960181 | 0.00018193 | deg/d |
Q | 1.363973888226017 | 0.00016988 | au |
|
| | Orbit Determination Parameters
Additional Information
|
[ show covariance matrix ]
Physical Parameter Table
Parameter |
Symbol |
Value |
Units |
Sigma |
Reference |
Notes |
absolute magnitude |
H |
27.7 |
|
.27283 |
MPO502096 |
autocmod 2.8 |
|
[ show close-approach data ]
|